Date,TemperatureHighF,TemperatureAvgF,TemperatureLowF,DewpointHighF,DewpointAvgF,DewpointLowF,HumidityHigh,HumidityAvg,HumidityLow,PressureMaxIn,PressureMinIn,WindSpeedMaxMPH,WindSpeedAvgMPH,GustSpeedMaxMPH,PrecipitationSumIn
2013-1-1,44.8,41.3,38.0,32.0,30.0,25.0,73,65,58,30.02,29.91,3,0,7,0.00
2013-1-2,40.1,35.9,31.2,30.0,21.6,14.0,69,57,46,30.25,30.01,5,1,9,0.00
2013-1-3,38.8,32.8,28.8,23.0,19.1,14.0,72,58,48,30.27,30.16,4,0,5,0.00
2013-1-4,44.7,36.0,26.0,23.0,21.7,20.0,84,59,41,30.22,30.11,5,1,11,0.00
2013-1-5,45.4,37.9,28.8,32.0,23.5,20.0,74,57,41,30.39,30.17,4,1,8,0.00
2013-1-6,52.3,43.9,31.6,34.0,30.4,28.0,91,61,41,30.20,30.03,5,0,8,0.00
2013-1-7,46.4,42.0,30.8,31.0,27.8,26.0,81,58,47,30.44,30.16,8,1,10,0.00
2013-1-8,53.7,40.1,28.3,36.0,31.4,25.0,91,73,47,30.43,30.36,2,0,5,0.00
2013-1-9,53.3,41.2,31.7,43.0,36.1,29.0,94,83,45,30.39,30.23,3,0,7,0.00
2013-1-10,54.1,48.6,40.4,33.0,30.1,28.0,67,50,37,30.60,30.39,3,1,12,0.00
2013-1-11,45.6,42.3,36.5,43.0,36.4,30.0,94,80,61,30.51,30.11,1,0,3,0.03
2013-1-12,52.0,46.0,43.6,47.0,43.6,42.0,95,91,83,30.18,30.11,2,0,4,0.00
2013-1-13,55.2,49.7,43.8,54.0,48.6,43.0,96,95,93,30.16,29.98,2,0,2,0.00
2013-1-14,61.0,54.5,42.1,59.0,48.2,37.0,97,80,63,30.31,29.96,4,1,10,0.12
2013-1-15,41.9,40.6,37.3,40.0,38.2,35.0,94,91,85,30.35,30.16,5,1,9,0.63
2013-1-16,42.3,39.3,36.6,41.0,37.6,35.0,94,93,91,30.16,29.86,4,0,7,0.56
2013-1-17,44.8,42.5,40.0,42.0,36.1,31.0,95,79,61,30.14,29.99,4,0,5,0.02
2013-1-18,39.8,36.0,32.5,31.0,19.9,11.0,72,53,35,30.50,30.06,10,1,12,0.00
2013-1-19,53.8,42.5,32.9,30.0,27.3,22.0,74,57,39,30.44,29.98,4,1,6,0.00
2013-1-20,60.1,47.6,37.8,34.0,24.5,9.0,66,43,20,30.08,29.83,9,2,14,0.00
2013-1-21,46.8,38.7,32.1,30.0,21.0,12.0,58,49,40,30.11,29.79,5,1,15,0.00
2013-1-22,31.7,23.1,19.6,13.0,0.1,-4.0,48,37,28,30.31,29.93,10,3,19,0.00
2013-1-23,27.4,22.4,15.7,16.0,2.7,-1.0,70,44,31,30.36,30.16,5,1,10,0.00
2013-1-24,27.4,23.2,19.7,18.0,10.5,2.0,84,61,34,30.53,30.10,7,1,16,0.00
2013-1-25,25.4,22.4,20.0,19.0,8.8,1.0,83,58,40,30.53,30.09,3,0,7,0.00
2013-1-26,35.5,29.8,24.2,24.0,21.4,19.0,80,71,57,30.44,30.10,3,0,7,0.02
2013-1-27,38.5,31.9,27.2,23.0,20.5,18.0,81,64,48,30.61,30.45,3,0,6,0.00
2013-1-28,47.9,37.9,31.9,43.0,33.6,23.0,92,84,71,30.51,30.05,3,0,6,0.10
2013-1-29,69.2,53.1,40.6,54.0,46.6,39.0,96,80,57,30.14,29.98,2,0,3,0.00
2013-1-30,71.5,62.7,48.7,62.0,57.5,46.0,96,84,72,29.98,29.23,5,1,10,0.38
2013-1-31,65.1,46.1,32.1,62.0,28.8,13.0,95,53,32,29.93,29.15,11,4,18,0.22
2013-2-1,34.8,28.5,21.4,28.0,12.1,4.0,88,52,35,30.42,29.81,12,2,19,0.00
2013-2-2,33.3,25.9,17.9,27.0,14.4,5.0,88,63,40,30.41,30.02,3,0,7,0.00
2013-2-3,34.8,31.0,25.3,29.0,26.3,19.0,93,83,55,30.01,29.85,5,0,9,0.09
2013-2-4,36.3,32.3,26.1,24.0,16.9,12.0,63,54,46,30.12,29.90,5,1,12,0.02
2013-2-5,42.7,37.6,32.2,30.0,27.2,24.0,78,66,59,29.94,29.85,4,0,7,0.10
2013-2-6,46.7,39.3,32.6,32.0,27.8,23.0,87,65,46,30.36,29.95,9,1,13,0.03
2013-2-7,41.9,36.0,29.4,31.0,26.4,23.0,82,69,56,30.46,30.21,4,1,8,0.00
2013-2-9,41.4,35.3,32.2,20.0,12.2,-99.9,56,45,39,30.40,30.21,8,-32,14,0.00
2013-2-10,45.5,36.3,24.3,30.0,20.4,16.0,79,54,31,30.46,30.25,3,0,6,0.00
2013-2-11,53.7,44.6,38.3,51.0,42.0,31.0,95,90,71,30.25,29.71,3,0,5,0.25
2013-2-13,47.8,40.6,35.4,38.0,31.6,-99.9,92,74,56,29.90,0.00,3,-14,7,0.17
2013-2-14,49.4,40.1,31.9,34.0,30.4,27.0,93,71,43,30.02,29.78,6,0,9,0.21
2013-2-15,59.7,44.4,32.7,38.0,33.9,29.0,93,71,32,30.04,29.88,6,0,10,0.09
2013-2-16,40.5,37.6,33.3,36.0,30.2,17.0,92,76,50,30.03,29.84,7,1,10,0.13
2013-2-17,33.6,29.6,26.2,18.0,11.7,5.0,60,48,34,30.22,29.84,11,4,20,0.00
2013-2-18,42.6,32.0,22.4,20.0,11.5,8.0,57,44,27,30.40,30.17,5,1,11,0.00
2013-2-19,46.0,41.2,36.3,42.0,31.6,20.0,88,70,49,30.17,29.73,6,1,8,0.05
2013-2-20,40.1,34.8,27.1,25.0,15.9,9.0,57,46,38,30.18,29.86,10,3,17,0.05
2013-2-21,40.2,32.0,25.8,18.0,14.6,9.0,58,49,39,30.33,30.15,10,2,14,0.00
2013-2-22,35.1,33.3,31.5,31.0,24.0,18.0,89,70,54,30.39,30.23,5,1,8,0.06
2013-2-23,46.1,40.0,34.0,44.0,38.2,31.0,95,93,89,30.22,29.81,5,0,5,0.05
2013-2-24,52.8,44.1,35.0,42.0,32.2,20.0,92,66,38,30.12,29.80,8,2,14,0.01
2013-2-25,48.2,38.7,29.4,27.0,23.7,20.0,74,56,40,30.23,30.12,4,0,8,0.01
2013-2-26,45.1,38.6,30.8,44.0,34.4,25.0,95,85,70,30.23,29.60,8,1,15,0.41
2013-2-27,57.1,48.6,41.5,45.0,39.5,34.0,95,73,47,29.70,29.52,4,1,7,0.11
2013-2-28,48.7,44.7,41.9,39.0,30.8,24.0,82,60,39,29.74,29.64,7,2,11,0.12
2013-3-1,45.2,42.4,38.3,31.0,28.7,26.0,66,59,49,29.89,29.73,7,2,12,0.00
2013-3-2,38.4,35.4,32.2,26.0,22.7,21.0,67,60,51,29.90,29.82,7,2,12,0.00
2013-3-3,42.8,35.5,30.5,23.0,20.1,17.0,69,55,41,29.93,29.80,8,2,12,0.00
2013-3-4,45.1,35.9,30.3,21.0,17.8,15.0,64,49,35,30.04,29.93,8,2,14,0.00
2013-3-5,52.0,40.5,30.3,32.0,21.6,14.0,75,50,22,30.09,29.82,5,-10,10,0.00
2013-3-6,40.7,37.0,34.0,36.0,33.8,32.0,93,88,75,29.99,29.60,9,2,22,0.58
2013-3-7,50.4,43.5,36.5,33.0,29.3,27.0,75,59,42,30.15,30.00,9,2,14,0.13
2013-3-8,50.5,43.7,37.9,30.0,28.2,26.0,68,55,44,30.26,30.13,8,2,16,0.05
2013-3-9,61.3,46.4,34.8,31.0,26.7,22.0,71,50,23,30.36,30.25,3,0,8,0.03
2013-3-10,62.9,48.0,32.1,37.0,27.4,18.0,85,51,18,30.34,30.22,3,0,8,0.12
2013-3-11,62.2,52.5,44.2,51.0,45.3,38.0,90,77,64,30.26,29.95,4,0,7,0.01
2013-3-12,58.7,54.5,43.8,56.0,46.5,32.0,94,75,54,29.97,29.69,9,1,12,0.04
2013-3-13,51.3,42.9,33.9,32.0,27.2,19.0,84,56,30,30.08,29.90,8,2,14,0.02
2013-3-14,46.8,39.0,33.7,21.0,17.9,15.0,56,44,29,30.14,30.03,9,2,17,0.01
2013-3-15,58.8,43.3,29.4,35.0,25.6,19.0,79,53,29,30.11,29.79,4,0,11,0.44
2013-3-16,61.5,49.0,40.5,49.0,38.1,34.0,79,67,50,29.91,29.63,6,1,12,0.00
2013-3-17,42.5,40.0,37.1,35.0,31.6,27.0,82,72,58,30.29,29.91,5,1,7,0.00
2013-3-18,39.5,37.9,33.7,37.0,31.8,24.0,93,80,56,30.34,29.89,5,1,9,0.34
2013-3-19,61.3,48.1,38.4,43.0,29.7,8.0,93,58,14,29.91,29.72,10,2,18,0.02
2013-3-20,53.8,46.4,38.5,22.0,13.9,9.0,41,27,21,30.00,29.77,8,2,15,0.00
2013-3-21,43.6,35.8,30.8,28.0,16.5,8.0,75,47,34,29.91,29.77,6,2,14,0.00
2013-3-22,30.8,29.7,28.2,14.0,12.5,11.0,56,49,43,29.94,29.91,3,0,8,0.00
2013-3-23,48.9,43.4,43.3,25.0,16.0,-99.9,47,39,37,29.99,0.00,5,-61,10,0.00
2013-3-24,44.5,39.3,33.5,33.0,25.3,22.0,91,59,43,30.01,29.67,6,1,9,0.04
2013-3-25,38.9,36.0,33.1,36.0,33.9,32.0,94,91,88,29.71,29.52,5,1,7,0.59
2013-3-26,49.8,42.6,34.8,36.0,31.4,26.0,93,68,40,29.99,29.71,8,1,13,0.00
2013-3-27,50.7,44.7,39.1,30.0,28.5,26.0,67,54,41,30.13,29.99,9,3,16,0.00
2013-3-28,48.6,44.3,38.9,32.0,29.2,27.0,63,56,45,30.23,30.09,9,2,14,0.00
2013-3-29,56.6,47.9,41.6,33.0,30.7,28.0,65,53,35,30.26,30.15,7,1,13,0.00
2013-3-30,61.8,48.9,36.8,35.0,30.0,24.0,80,52,24,30.23,30.11,6,1,9,0.00
2013-3-31,56.4,49.2,42.9,50.0,41.2,31.0,92,75,57,30.13,29.74,3,0,8,0.00
2013-4-1,65.7,50.8,41.2,46.0,37.8,23.0,95,65,36,29.99,29.72,11,2,15,0.00
2013-4-2,51.0,43.3,37.4,23.0,16.2,12.0,47,34,22,30.18,30.00,11,2,14,0.00
2013-4-3,52.8,41.3,31.0,21.0,17.1,12.0,67,40,21,30.39,30.18,10,2,13,0.00
2013-4-4,50.9,39.5,29.0,37.0,21.6,15.0,90,52,26,30.42,30.10,4,0,7,0.04
2013-4-5,66.2,50.6,39.0,40.0,32.7,22.0,93,58,24,30.09,29.82,7,1,11,0.23
2013-4-6,59.5,49.0,39.9,34.0,23.5,18.0,62,38,26,30.34,30.05,5,1,12,0.00
2013-4-7,72.4,57.1,41.0,43.0,37.7,32.0,77,51,31,30.29,29.99,5,1,10,0.00
2013-4-8,81.6,68.5,51.0,51.0,46.6,42.0,75,48,29,30.07,29.94,4,0,7,0.00
2013-4-9,87.9,76.0,60.9,56.0,53.3,51.0,71,47,30,30.08,29.92,6,1,11,0.00
2013-4-10,91.6,80.3,63.5,59.0,55.4,53.0,73,44,29,29.97,29.77,5,1,10,0.00
2013-4-11,87.4,73.7,57.6,62.0,57.8,53.0,83,60,36,29.87,29.72,6,1,12,0.00
2013-4-12,76.6,62.6,53.8,68.0,58.5,51.0,95,87,72,29.82,29.56,9,1,10,0.15
2013-4-13,73.9,58.7,45.7,54.0,42.7,38.0,85,58,29,29.94,29.75,5,1,10,0.02
2013-4-14,68.6,54.6,45.0,46.0,38.0,-99.9,84,61,34,30.13,29.95,3,-29,9,0.01
2013-4-15,63.7,59.6,55.6,52.0,48.4,44.0,79,67,59,30.29,30.13,5,1,9,0.00
2013-4-16,77.8,64.8,55.9,60.0,55.4,49.0,84,72,54,30.32,30.12,4,1,9,0.01
2013-4-17,79.0,68.0,58.4,63.0,59.3,56.0,93,75,55,30.23,30.12,5,1,10,0.00
2013-4-18,79.4,67.5,60.8,65.0,59.6,56.0,92,77,54,30.23,30.00,5,1,9,0.00
2013-4-19,80.2,68.9,52.1,67.0,61.9,49.0,94,79,60,30.00,29.58,7,1,13,0.00
2013-4-20,62.0,54.1,47.3,49.0,32.9,27.0,91,48,28,30.33,29.79,10,2,13,0.02
2013-4-21,56.8,49.0,41.7,35.0,27.6,23.0,64,44,31,30.60,30.34,6,1,11,0.00
2013-4-22,57.9,49.0,40.0,41.0,37.1,34.0,83,65,50,30.58,30.40,9,2,13,0.00
2013-4-23,65.0,53.1,47.8,47.0,43.0,38.0,85,70,47,30.41,30.13,6,1,9,0.00
2013-4-24,79.1,62.1,45.0,58.0,50.4,43.0,94,69,39,30.13,29.79,7,1,14,0.00
2013-4-25,67.8,56.5,46.9,49.0,35.9,30.0,69,48,26,30.32,29.97,8,1,15,0.02
2013-4-26,68.8,56.8,43.7,42.0,38.7,34.0,87,54,29,30.45,30.31,5,0,8,0.00
2013-4-27,72.7,59.7,45.2,47.0,41.9,37.0,88,55,32,30.42,30.29,5,0,9,0.00
2013-4-28,68.3,58.6,47.7,52.0,44.0,39.0,86,61,35,30.30,30.15,3,0,8,0.00
2013-4-29,61.0,57.0,54.0,58.0,54.2,44.0,94,90,61,30.17,30.05,7,1,9,0.23
2013-4-30,61.5,57.8,55.7,57.0,54.4,47.0,95,88,65,30.28,30.09,8,1,13,0.01
2013-5-1,71.8,60.4,49.6,50.0,44.4,38.0,82,59,31,30.43,30.29,8,1,11,0.00
2013-5-2,70.8,57.0,45.2,51.0,46.7,43.0,93,71,45,30.45,30.32,7,1,10,0.00
2013-5-3,67.8,57.2,47.5,50.0,44.5,41.0,91,65,39,30.38,30.30,11,2,14,0.00
2013-5-4,70.0,58.3,49.2,48.0,44.6,40.0,84,63,42,30.35,30.18,8,2,14,0.00
2013-5-5,66.2,55.1,46.2,48.0,43.5,40.0,81,66,49,30.25,30.15,6,1,10,0.00
2013-5-6,63.8,56.8,51.9,58.0,52.3,45.0,91,84,78,30.19,30.05,9,1,12,0.00
2013-5-7,64.6,61.3,58.7,62.0,59.2,57.0,95,92,89,30.06,29.92,9,2,12,0.43
2013-5-8,72.0,61.5,57.0,60.0,57.2,55.0,96,86,58,30.01,29.93,4,0,9,0.06
2013-5-9,75.5,63.0,55.9,65.0,58.2,54.0,96,86,57,30.00,29.92,8,0,11,0.17
2013-5-10,85.1,70.3,54.6,66.0,60.2,54.0,97,74,42,30.02,29.86,5,0,9,0.52
2013-5-11,81.4,69.1,63.6,67.0,63.9,62.0,96,85,57,29.93,29.70,5,0,8,0.18
2013-5-12,65.6,61.3,52.5,63.0,41.6,29.0,95,52,28,30.04,29.75,9,2,19,0.02
2013-5-13,61.2,52.7,42.4,38.0,31.0,23.0,81,47,24,30.17,30.04,10,1,14,0.00
2013-5-14,65.0,53.6,38.4,43.0,34.9,29.0,85,52,31,30.22,30.05,5,1,9,0.00
2013-5-15,87.6,68.3,54.9,65.0,54.1,43.0,80,62,44,30.05,29.68,2,0,7,0.00
2013-5-16,84.3,74.9,63.8,64.0,60.8,58.0,85,63,44,29.91,29.75,8,1,11,0.00
2013-5-17,84.2,73.6,59.7,60.0,55.0,50.0,87,54,34,30.14,29.92,6,1,9,0.00
2013-5-18,68.1,63.8,60.7,60.0,57.1,51.0,90,79,55,30.25,30.15,5,1,8,0.01
2013-5-19,78.9,67.0,60.5,68.0,63.3,58.0,96,88,65,30.21,30.09,3,0,7,0.00
2013-5-20,84.6,72.7,65.4,71.0,67.5,64.0,95,84,61,30.12,29.98,1,0,5,0.01
2013-5-21,85.4,74.8,67.8,73.0,68.7,66.0,94,82,64,30.00,29.88,4,0,8,0.00
2013-5-22,88.1,78.3,70.6,75.0,70.8,65.0,94,79,59,29.94,29.83,6,0,7,0.02
2013-5-23,82.6,74.1,65.0,71.0,68.4,62.0,95,83,64,29.91,29.75,6,0,11,0.14
2013-5-24,65.0,58.3,50.3,63.0,49.0,35.0,95,73,53,30.16,29.74,9,3,15,0.01
2013-5-25,68.3,56.4,45.9,40.0,35.9,33.0,64,48,30,30.20,30.09,13,3,16,0.00
2013-5-26,74.9,62.0,50.7,43.0,37.7,33.0,64,42,25,30.22,30.12,9,2,14,0.00
2013-5-27,72.9,62.5,48.5,52.0,45.7,40.0,81,57,30,30.29,30.18,3,0,6,0.00
2013-5-28,87.0,69.3,59.1,71.0,61.1,52.0,95,77,56,30.20,30.05,6,0,10,0.27
2013-5-29,90.4,77.9,66.3,71.0,67.3,65.0,96,73,45,30.13,30.07,3,0,6,0.00
2013-5-30,92.5,80.5,68.2,72.0,68.2,64.0,87,67,46,30.18,30.10,4,0,7,0.00
2013-5-31,91.9,80.4,67.5,70.0,66.4,64.0,90,65,41,30.16,30.02,3,0,9,0.00
2013-6-1,92.7,81.5,70.0,73.0,67.6,64.0,83,64,44,30.05,29.92,4,0,10,0.00
2013-6-2,85.6,78.2,71.4,72.0,68.4,65.0,92,73,62,29.92,29.83,6,1,11,0.03
2013-6-3,82.3,73.0,67.4,70.0,67.7,60.0,95,84,63,29.94,29.82,3,0,9,0.03
2013-6-4,77.8,69.1,61.6,59.0,50.1,42.0,74,53,33,30.13,29.95,5,1,9,0.00
2013-6-5,81.4,69.9,55.8,59.0,55.6,53.0,90,63,43,30.18,30.05,3,0,10,0.00
2013-6-6,75.3,68.2,62.8,65.0,61.0,54.0,94,78,63,30.09,29.86,5,0,9,0.51
2013-6-7,71.0,69.3,66.5,70.0,68.0,65.0,96,95,92,29.85,29.58,7,1,9,1.57
2013-6-8,82.6,72.3,66.0,67.0,63.2,60.0,93,75,46,30.08,29.70,5,0,9,0.01
2013-6-9,83.9,74.4,65.3,74.0,67.2,62.0,91,79,56,30.19,30.08,6,1,10,0.05
2013-6-10,81.1,73.4,69.1,77.0,71.1,67.0,96,92,83,30.10,29.79,4,0,10,2.10
2013-6-11,84.1,74.9,67.1,69.0,66.1,64.0,95,76,55,29.85,29.77,5,1,12,0.00
2013-6-12,90.2,80.4,69.5,71.0,66.6,63.0,82,64,44,29.86,29.78,8,1,12,0.00
2013-6-13,88.5,77.2,70.5,74.0,67.4,57.0,91,73,52,29.79,29.46,8,1,13,0.00
2013-6-14,79.8,70.8,60.9,59.0,55.8,52.0,88,61,41,29.97,29.59,6,1,13,0.06
2013-6-15,85.1,74.6,63.0,61.0,57.9,55.0,82,57,39,30.08,29.97,7,1,9,0.00
2013-6-16,85.3,75.9,67.1,70.0,65.3,60.0,85,71,52,30.02,29.88,5,0,9,0.00
2013-6-17,87.8,79.0,71.4,74.0,69.8,67.0,87,74,57,29.96,29.87,3,0,6,0.01
2013-6-18,78.2,72.6,65.8,72.0,69.0,64.0,94,88,76,29.91,29.80,6,0,10,0.25
2013-6-19,78.6,70.6,65.1,66.0,63.4,61.0,94,79,59,30.16,29.89,4,0,8,0.00
2013-6-20,80.7,71.7,63.3,67.0,61.4,55.0,95,72,49,30.27,30.16,4,0,8,0.00
2013-6-21,85.2,72.1,58.7,61.0,56.8,53.0,90,62,35,30.31,30.23,7,0,8,0.00
2013-6-24,75.1,74.7,74.1,70.0,70.0,70.0,87,86,84,30.05,30.04,0,0,0,0.00
2013-6-25,92.2,81.5,69.8,76.0,71.0,63.0,94,72,52,30.04,29.89,6,0,16,0.01
2013-6-26,91.1,79.7,70.9,77.0,70.7,67.0,90,75,56,29.92,29.80,3,0,8,0.03
2013-6-27,83.4,75.3,70.8,75.0,71.1,68.0,94,87,74,29.84,29.63,2,0,6,0.31
2013-6-28,89.2,75.7,67.9,75.0,71.0,64.0,96,86,58,29.64,29.49,7,0,14,2.29
2013-6-29,89.3,78.1,67.6,72.0,68.0,63.0,97,74,46,29.69,29.53,3,0,6,0.00
2013-6-30,88.0,79.0,74.4,77.0,74.4,72.0,95,86,67,29.85,29.69,3,0,9,0.27
2013-7-1,84.6,76.9,71.9,76.0,72.9,70.0,95,88,70,29.98,29.84,1,0,8,0.37
2013-7-2,81.9,76.7,73.6,76.0,73.0,71.0,94,88,76,30.18,29.99,1,0,6,0.26
2013-7-3,87.4,78.1,72.2,79.0,73.7,70.0,95,86,72,30.23,30.16,2,0,6,0.08
2013-7-4,91.2,81.7,74.6,76.0,74.0,73.0,94,78,57,30.26,30.16,4,0,8,0.00
2013-7-5,91.1,82.8,74.4,76.0,73.8,72.0,91,75,56,30.23,30.12,5,0,11,0.00
2013-7-6,93.4,83.4,75.8,78.0,74.4,72.0,91,75,53,30.19,30.07,6,0,10,0.00
2013-7-7,91.0,81.6,72.7,77.0,72.9,68.0,90,75,59,30.12,30.00,7,0,13,0.03
2013-7-8,87.4,77.9,71.9,73.0,70.3,68.0,94,79,53,30.11,30.04,7,0,12,0.12
2013-7-9,86.7,79.6,73.4,76.0,73.1,70.0,93,81,66,30.11,30.00,1,0,4,0.01
2013-7-10,90.0,80.4,73.8,79.0,75.0,72.0,94,84,67,30.01,29.85,8,0,10,0.24
2013-7-11,85.3,78.0,73.7,74.0,71.8,69.0,94,82,60,29.92,29.84,2,0,8,0.00
2013-7-12,77.6,71.2,68.2,73.0,68.3,67.0,95,90,81,30.02,29.90,6,0,11,1.87
2013-7-13,86.4,77.2,70.5,76.0,71.7,68.0,94,84,68,30.26,30.03,4,0,8,0.07
2013-7-14,90.9,81.6,73.3,78.0,74.2,72.0,96,80,56,30.34,30.27,5,0,6,0.00
2013-7-15,94.5,83.7,73.2,76.0,73.3,71.0,93,73,49,30.31,30.18,5,0,7,0.00
2013-7-16,95.1,86.5,78.1,78.0,72.7,69.0,84,65,43,30.23,30.15,5,0,9,0.00
2013-7-17,94.3,84.9,76.7,76.0,73.5,71.0,86,70,50,30.21,30.09,6,0,7,0.00
2013-7-18,95.2,86.7,77.3,81.0,76.8,74.0,89,73,59,30.11,29.99,2,0,6,0.00
2013-7-19,96.5,88.1,80.6,81.0,77.3,74.0,84,71,55,30.01,29.87,3,0,10,0.00
2013-7-20,94.7,85.7,79.8,78.0,75.2,72.0,85,72,50,29.90,29.79,6,0,8,0.00
2013-7-21,91.4,82.2,75.5,75.0,71.9,69.0,88,72,53,29.94,29.87,4,0,7,0.00
2013-7-22,89.8,81.3,74.5,77.0,73.9,70.0,93,79,62,29.93,29.76,4,0,7,0.00
2013-7-23,88.3,80.2,74.1,74.0,71.2,67.0,95,76,52,29.78,29.64,7,1,13,0.02
2013-7-24,85.6,78.9,72.6,70.0,66.4,60.0,87,66,50,29.90,29.68,7,1,9,0.00
2013-7-25,82.5,73.2,65.1,65.0,58.8,53.0,75,61,47,30.03,29.91,6,1,9,0.00
2013-7-26,83.7,73.9,64.7,65.0,62.3,60.0,89,68,45,30.09,30.02,4,0,6,0.00
2013-7-27,85.6,74.9,69.2,73.0,68.9,66.0,94,82,59,30.05,29.92,6,0,9,0.39
2013-7-28,84.9,75.1,68.9,76.0,70.4,67.0,94,86,64,29.99,29.88,5,0,8,0.06
2013-7-29,82.9,73.4,65.5,70.0,61.2,55.0,91,68,39,30.16,29.98,6,0,9,0.00
2013-7-30,83.7,73.9,63.1,64.0,60.4,57.0,86,64,46,30.23,30.14,5,0,8,0.00
2013-7-31,81.2,73.7,67.4,72.0,67.5,64.0,92,81,65,30.15,30.02,4,0,11,0.06
2013-8-1,81.1,73.3,68.8,74.0,70.2,67.0,95,90,76,30.03,29.81,2,0,6,0.38
2013-8-2,86.1,76.7,66.1,69.0,66.2,63.0,95,72,50,29.96,29.85,4,0,9,0.00
2013-8-3,80.3,73.3,69.2,70.0,66.9,65.0,90,81,62,29.97,29.92,4,0,6,0.02
2013-8-4,82.2,73.4,66.1,67.0,60.0,54.0,93,66,40,30.03,29.91,9,1,12,0.00
2013-8-5,82.1,71.7,60.7,62.0,58.0,55.0,84,64,40,30.11,30.01,5,0,7,0.00
2013-8-6,73.3,70.8,68.3,68.0,65.9,62.0,91,84,74,30.08,30.01,2,0,6,0.03
2013-8-7,84.7,76.5,70.7,74.0,70.2,67.0,91,81,68,30.07,29.99,1,0,8,0.00
2013-8-8,86.8,79.7,74.9,76.0,73.6,72.0,89,82,68,30.04,29.98,2,0,8,0.00
2013-8-9,91.6,83.9,77.2,78.0,74.6,72.0,89,74,58,29.98,29.85,5,0,9,0.00
2013-8-10,84.6,78.9,73.3,72.0,68.9,65.0,84,72,55,30.09,29.94,3,0,6,0.00
2013-8-11,85.5,77.5,72.6,72.0,69.1,67.0,88,76,57,30.11,30.01,1,0,7,0.00
2013-8-12,90.0,80.5,71.8,75.0,69.8,64.0,92,72,44,30.03,29.91,4,0,7,0.00
2013-8-13,86.0,78.7,70.6,74.0,71.2,67.0,94,79,58,29.90,29.73,5,0,13,0.29
2013-8-14,75.1,68.8,61.8,70.0,54.1,50.0,95,61,46,30.10,29.82,7,2,15,0.00
2013-8-15,79.2,68.1,57.9,59.0,54.2,50.0,84,63,40,30.19,30.09,7,1,10,0.00
2013-8-16,79.5,69.3,57.6,60.0,57.1,55.0,92,67,45,30.20,30.13,6,0,8,0.00
2013-8-17,79.2,70.8,59.7,64.0,59.8,57.0,92,70,48,30.27,30.19,8,1,12,0.00
2013-8-18,72.7,68.8,64.7,67.0,63.7,60.0,94,84,64,30.24,30.17,3,0,6,0.26
2013-8-19,73.9,69.1,62.6,68.0,64.8,61.0,94,86,78,30.18,30.08,4,0,7,0.00
2013-8-20,86.3,76.4,65.6,72.0,68.8,64.0,95,78,58,30.16,30.09,3,0,7,0.00
2013-8-21,88.2,78.7,70.0,75.0,71.7,68.0,95,81,57,30.20,30.07,5,0,7,0.14
2013-8-22,87.6,79.7,72.2,72.0,69.5,67.0,95,73,52,30.10,29.93,6,1,9,0.00
2013-8-23,77.9,72.1,63.0,72.0,65.6,56.0,92,80,58,30.11,29.93,2,0,11,0.12
2013-8-24,83.2,71.8,61.7,65.0,60.8,57.0,94,71,45,30.33,30.12,6,1,9,0.00
2013-8-25,82.4,71.7,61.0,66.0,60.1,55.0,94,69,45,30.41,30.28,6,0,7,0.00
2013-8-26,87.1,75.2,62.7,67.0,62.3,58.0,88,66,44,30.30,30.02,5,0,9,0.00
2013-8-27,90.3,80.7,72.0,73.0,69.1,66.0,81,69,51,30.01,29.87,6,1,8,0.00
2013-8-28,79.9,76.2,74.1,75.0,71.9,69.0,93,86,73,29.92,29.82,4,0,5,0.10
2013-8-29,85.7,77.6,73.3,73.0,70.7,68.0,94,80,60,30.02,29.83,5,0,10,0.00
2013-8-30,86.1,78.1,71.8,73.0,70.0,67.0,90,77,60,30.05,29.89,5,0,8,0.00
2013-8-31,87.4,77.0,74.4,75.0,63.7,-99.9,85,72,61,29.91,29.79,1,-51,5,0.00
2013-9-1,90.0,80.5,70.6,75.0,71.2,67.0,91,74,52,29.85,29.75,3,0,8,0.00
2013-9-2,88.8,79.7,71.9,75.0,72.4,69.0,95,79,55,29.81,29.72,3,0,8,0.11
2013-9-3,85.1,78.7,72.1,74.0,64.4,56.0,88,64,42,29.96,29.73,5,1,10,0.00
2013-9-4,82.7,72.4,61.6,62.0,57.2,53.0,80,60,37,30.09,29.96,5,1,8,0.00
2013-9-5,83.5,74.1,61.5,64.0,59.2,50.0,88,62,43,30.12,30.00,7,1,10,0.00
2013-9-6,77.7,67.9,60.4,56.0,50.7,46.0,76,56,41,30.26,30.13,5,1,12,0.00
2013-9-7,79.8,69.0,56.2,65.0,59.2,53.0,90,72,56,30.14,29.94,5,0,7,0.00
2013-9-8,87.5,77.0,67.0,68.0,64.4,59.0,89,67,48,30.05,29.87,11,1,11,0.00
2013-9-9,76.5,68.6,65.2,69.0,53.0,-99.9,83,64,57,30.15,30.05,5,-43,13,0.00
2013-9-10,90.5,80.4,72.5,75.0,72.1,69.0,90,77,57,30.18,30.08,4,0,7,0.00
2013-9-11,92.8,82.8,74.0,76.0,73.1,71.0,93,74,50,30.14,30.00,2,0,7,0.00
2013-9-12,91.5,78.3,71.4,75.0,71.0,67.0,93,79,51,30.00,29.74,5,0,14,0.25
2013-9-13,78.2,71.3,63.2,69.0,59.0,51.0,93,68,40,29.94,29.70,6,1,11,0.00
2013-9-14,70.2,61.9,55.1,51.0,47.3,46.0,78,60,44,30.16,29.94,6,1,10,0.00
2013-9-15,75.9,63.6,49.5,60.0,52.5,47.0,92,69,48,30.24,30.09,3,0,8,0.00
2013-9-16,72.8,65.9,59.8,62.0,58.4,55.0,91,78,56,30.23,30.04,4,0,10,0.04
2013-9-17,69.4,60.2,52.4,56.0,46.6,40.0,87,63,36,30.44,30.23,7,1,11,0.00
2013-9-18,71.1,59.4,47.6,53.0,48.2,44.0,94,69,41,30.35,30.19,5,0,6,0.00
2013-9-19,76.9,65.1,52.5,59.0,55.3,50.0,95,72,52,30.21,30.08,4,0,8,0.00
2013-9-20,79.6,68.0,56.7,63.0,58.9,54.0,94,74,54,30.10,29.96,5,0,9,0.00
2013-9-21,77.2,67.9,61.2,66.0,62.1,58.0,94,82,61,29.98,29.69,6,0,13,0.78
2013-9-22,72.4,65.6,59.0,62.0,55.7,49.0,94,72,49,29.95,29.73,5,1,8,0.00
2013-9-23,66.6,59.3,53.7,50.0,46.7,43.0,82,64,49,30.10,29.95,6,1,9,0.00
2013-9-24,72.3,58.6,46.9,53.0,48.1,45.0,92,71,44,30.12,29.95,5,0,8,0.00
2013-9-25,74.3,60.5,49.7,54.0,49.1,44.0,94,70,34,29.99,29.88,4,0,7,0.00
2013-9-26,74.2,63.9,56.9,57.0,54.5,52.0,90,74,48,30.08,29.92,6,0,8,0.00
2013-9-27,71.5,63.7,55.5,61.0,56.7,53.0,93,79,60,30.24,30.08,2,0,10,0.00
2013-9-28,70.6,63.9,58.5,57.0,55.5,54.0,88,75,57,30.31,30.22,6,0,9,0.00
2013-9-29,72.3,61.9,51.9,59.0,54.7,50.0,95,79,58,30.22,30.07,5,0,9,0.00
2013-9-30,73.8,62.6,52.3,57.0,54.0,50.0,95,75,52,30.10,29.99,1,0,6,0.00
2013-10-1,81.1,68.4,56.8,62.0,58.8,54.0,93,74,47,30.08,29.97,4,0,8,0.00
2013-10-2,84.7,71.2,58.4,63.0,60.1,56.0,95,71,45,30.09,30.00,6,0,10,0.00
2013-10-3,83.1,71.9,60.7,67.0,63.3,58.0,93,75,53,30.12,30.04,2,0,6,0.00
2013-10-4,86.7,74.3,62.6,69.0,65.0,61.0,95,75,49,30.09,30.00,4,0,8,0.00
2013-10-5,86.8,75.6,65.8,69.0,66.7,64.0,94,75,53,30.09,30.00,2,0,8,0.00
2013-10-6,87.5,76.4,66.8,70.0,66.9,64.0,94,74,50,30.03,29.92,5,0,7,0.00
2013-10-7,77.0,67.7,57.7,71.0,63.3,49.0,94,86,70,30.06,29.80,11,0,19,1.00
2013-10-8,65.9,59.1,50.7,51.0,48.8,47.0,89,70,54,30.28,30.06,7,0,10,0.00
2013-10-9,61.7,57.9,55.7,54.0,51.4,48.0,91,79,70,30.31,30.20,6,0,14,0.16
2013-10-10,59.0,56.7,54.2,57.0,55.1,52.0,95,94,89,30.20,29.98,2,0,10,1.65
2013-10-11,63.0,60.8,57.1,62.0,59.6,56.0,96,95,94,29.98,29.93,2,0,6,3.00
2013-10-12,67.7,63.2,61.4,62.0,60.7,59.0,96,91,80,30.15,29.98,8,1,11,0.16
2013-10-13,64.9,62.0,59.3,60.0,58.5,55.0,94,88,80,30.32,30.15,6,1,8,0.01
2013-10-14,67.7,61.4,56.0,57.0,55.5,54.0,91,81,66,30.34,30.23,4,0,9,0.00
2013-10-15,70.3,60.9,52.0,60.0,52.7,46.0,96,77,43,30.25,30.09,6,0,8,0.01
2013-10-16,72.0,65.4,61.2,64.0,61.0,59.0,92,86,73,30.09,29.92,2,0,6,0.00
2013-10-17,75.5,67.8,61.4,66.0,62.8,58.0,95,84,70,29.92,29.73,6,0,9,0.00
2013-10-18,65.9,58.7,50.9,56.0,46.4,43.0,87,65,45,30.03,29.82,8,1,12,0.00
2013-10-19,64.8,57.1,47.8,59.0,52.3,45.0,95,85,64,30.01,29.79,2,0,9,0.00
2013-10-20,62.8,54.6,46.4,54.0,39.6,35.0,89,59,37,30.11,29.87,9,1,15,0.00
2013-10-21,65.5,53.1,42.2,49.0,44.2,40.0,95,74,44,30.16,29.98,1,0,5,0.00
2013-10-22,65.0,56.2,47.5,54.0,47.8,37.0,92,75,54,29.97,29.82,5,0,7,0.00
2013-10-23,58.3,51.2,46.2,45.0,39.9,35.0,89,67,43,29.91,29.66,5,1,11,0.12
2013-10-24,51.4,45.0,38.8,38.0,32.7,27.0,84,64,41,30.15,29.91,9,1,13,0.00
2013-10-25,54.7,45.3,35.0,34.0,32.4,30.0,86,62,44,30.33,30.15,7,1,11,0.00
2013-10-26,55.4,45.3,32.7,35.0,32.4,30.0,91,63,40,30.32,29.95,6,0,7,0.00
2013-10-27,60.5,50.2,40.9,42.0,37.9,34.0,87,65,42,30.15,29.96,5,0,10,0.00
2013-10-28,63.4,48.9,38.9,47.0,41.4,37.0,94,77,45,30.28,30.15,4,0,6,0.00
2013-10-29,61.8,50.3,40.9,47.0,43.1,39.0,94,78,51,30.38,30.28,4,0,6,0.00
2013-10-30,62.5,55.2,50.2,57.0,52.1,46.0,95,89,80,30.33,30.16,1,0,6,0.05
2013-10-31,68.9,61.7,53.5,62.0,57.7,52.0,96,87,75,30.19,29.79,1,0,5,0.01
2013-11-1,71.3,67.2,59.5,64.0,61.6,57.0,93,82,75,29.78,29.61,5,1,8,0.13
2013-11-2,68.1,58.8,51.4,58.0,48.6,40.0,94,71,48,29.89,29.64,6,1,9,0.02
2013-11-3,56.6,49.5,42.9,43.0,34.9,23.0,85,60,28,30.46,29.89,7,1,10,0.00
2013-11-4,47.7,41.4,35.7,32.0,26.2,24.0,76,56,43,30.64,30.46,4,0,9,0.00
2013-11-5,58.1,48.7,37.9,49.0,40.7,32.0,82,74,64,30.62,30.47,3,0,6,0.00
2013-11-6,68.1,58.4,51.5,55.0,51.4,48.0,89,78,61,30.47,30.08,5,0,7,0.00
2013-11-7,62.7,55.0,46.0,57.0,46.9,25.0,95,76,42,30.10,29.88,8,1,15,0.02
2013-11-8,51.5,43.0,34.7,31.0,28.3,24.0,83,59,37,30.33,30.09,7,1,14,0.00
2013-11-9,54.7,43.6,31.1,34.0,30.4,28.0,90,63,39,30.37,30.05,3,0,9,0.00
2013-11-10,63.8,49.7,39.3,39.0,32.1,28.0,81,54,30,30.24,29.95,12,1,13,0.00
2013-11-11,56.6,48.3,36.0,34.0,31.6,28.0,82,54,37,30.32,30.01,5,0,8,0.00
2013-11-12,51.6,42.8,33.9,39.0,25.7,15.0,70,52,39,30.42,29.98,9,2,18,0.00
2013-11-13,42.6,36.2,31.4,25.0,20.9,19.0,67,55,42,30.50,30.40,8,1,13,0.00
2013-11-14,54.6,38.8,27.3,29.0,24.7,21.0,86,60,30,30.40,30.23,3,0,6,0.00
2013-11-15,58.9,43.3,30.1,44.0,31.6,27.0,90,66,35,30.30,30.19,2,0,4,0.08
2013-11-16,53.7,50.1,45.9,51.0,47.8,44.0,94,91,88,30.33,30.24,2,0,6,0.33
2013-11-17,65.0,57.9,52.1,59.0,54.9,50.0,95,90,79,30.24,29.76,1,0,5,0.00
2013-11-18,68.5,60.4,51.9,61.0,40.8,26.0,94,55,21,29.96,29.70,8,2,16,0.19
2013-11-19,51.5,45.7,40.5,29.0,27.4,26.0,59,49,40,30.37,29.95,9,2,12,0.00
2013-11-20,46.5,39.7,34.2,30.0,26.8,24.0,82,61,47,30.57,30.38,6,1,9,0.00
2013-11-21,51.6,42.9,33.2,40.0,35.1,29.0,88,75,62,30.57,30.40,4,0,6,0.00
2013-11-22,61.8,54.0,44.8,55.0,48.0,40.0,91,81,70,30.40,30.00,5,0,8,0.00
2013-11-23,59.0,46.3,34.0,50.0,28.6,13.0,74,51,35,30.22,30.02,8,2,15,0.00
2013-11-24,33.8,29.1,25.9,14.0,7.3,4.0,49,40,33,30.54,30.22,12,3,20,0.00
2013-11-25,37.0,30.7,23.8,15.0,11.1,9.0,54,45,32,30.59,30.36,4,1,7,0.00
2013-11-26,46.9,37.7,35.1,46.0,29.5,15.0,96,75,43,30.36,29.60,3,0,10,1.40
2013-11-27,41.2,38.4,31.0,39.0,32.8,16.0,94,81,54,30.06,29.51,11,2,20,0.74
2013-11-28,38.3,32.5,27.9,26.0,18.0,14.0,81,56,42,30.49,30.07,10,2,15,0.00
2013-11-29,42.2,34.7,25.7,25.0,22.4,20.0,88,62,42,30.73,30.47,6,1,12,0.00
2013-11-30,39.6,33.6,27.7,27.0,23.0,21.0,77,66,50,30.73,30.39,3,0,6,0.00
2013-12-1,48.4,37.6,26.9,34.0,29.6,24.0,90,74,54,30.38,30.02,1,0,6,0.00
2013-12-2,49.1,44.7,41.4,42.0,37.4,33.0,81,76,71,30.02,29.88,2,0,4,0.00
2013-12-3,55.9,46.3,40.7,41.0,38.5,36.0,88,75,55,30.00,29.89,4,0,6,0.00
2013-12-4,57.5,48.9,40.3,50.0,44.3,38.0,92,84,73,30.09,30.00,1,0,4,0.00
2013-12-5,69.6,60.3,53.5,62.0,56.5,50.0,94,87,72,30.07,29.93,3,0,6,0.00
2013-12-6,64.5,52.6,40.7,62.0,50.3,39.0,94,92,88,30.17,29.88,8,1,11,0.55
2013-12-7,43.7,39.1,33.3,39.0,31.3,23.0,92,75,58,30.56,30.14,8,1,10,0.15
2013-12-8,33.1,31.4,30.1,31.0,26.0,22.0,94,81,67,30.60,30.31,5,1,7,0.19
2013-12-9,36.7,34.4,32.6,35.0,32.9,31.0,95,94,92,30.32,30.04,1,0,4,0.14
2013-12-10,38.4,34.0,28.0,34.0,31.0,26.0,94,89,67,30.24,29.99,5,0,9,0.20
2013-12-11,41.5,31.1,23.6,28.0,24.8,22.0,93,79,49,30.42,30.24,2,0,5,0.06
2013-12-12,32.5,29.1,25.2,25.0,17.1,11.0,90,62,42,30.46,30.26,6,1,13,0.00
2013-12-13,42.7,34.0,25.8,27.0,19.7,14.0,78,58,35,30.32,30.23,2,0,8,0.04
2013-12-14,40.9,36.8,33.0,37.0,32.3,27.0,94,84,77,30.32,29.71,5,0,8,0.59
2013-12-15,47.7,39.0,31.4,38.0,31.2,24.0,93,75,55,29.96,29.64,9,1,15,0.02
2013-12-16,38.7,36.2,33.4,27.0,26.0,24.0,77,67,58,30.20,29.96,4,0,7,0.00
2013-12-17,39.0,36.6,34.7,35.0,30.9,27.0,87,80,73,30.17,29.94,4,0,7,0.01
2013-12-18,41.7,35.3,28.9,32.0,26.2,21.0,92,71,48,30.23,30.01,6,1,12,0.00
2013-12-19,59.8,42.6,27.7,33.0,28.8,24.0,89,62,33,30.22,30.08,2,0,6,0.00
2013-12-20,59.3,52.2,44.5,49.0,36.7,30.0,73,56,45,30.11,30.00,2,0,5,0.00
2013-12-21,70.4,62.3,54.0,61.0,52.7,45.0,83,71,61,30.03,29.91,7,1,8,0.00
2013-12-22,70.7,65.2,60.8,64.0,61.0,58.0,94,86,76,30.02,29.84,7,1,15,0.26
2013-12-23,63.2,55.7,40.8,62.0,51.1,29.0,96,84,63,30.24,29.93,7,1,12,0.72
2013-12-24,40.8,35.6,25.6,29.0,20.6,8.0,68,55,40,30.50,30.21,9,2,18,0.00
2013-12-25,32.3,27.3,22.5,21.0,13.4,10.0,77,57,44,30.59,30.40,6,0,8,0.00
2013-12-26,44.0,32.8,26.7,28.0,24.2,22.0,83,72,48,30.40,30.23,4,0,5,0.00
2013-12-27,48.8,35.5,26.2,29.0,24.9,23.0,89,68,37,30.44,30.33,5,0,6,0.00
2013-12-28,56.4,40.1,27.8,33.0,28.6,25.0,91,67,35,30.35,30.13,2,0,5,0.00
2013-12-29,48.9,45.5,40.5,46.0,40.6,30.0,95,84,53,30.12,29.54,5,0,9,1.23
2013-12-30,46.5,39.6,35.3,41.0,32.5,24.0,95,77,61,30.20,29.83,5,1,12,0.00
2013-12-31,46.3,36.8,31.8,31.0,22.6,18.0,71,57,41,30.35,30.12,10,1,13,0.00
2014-1-1,48.1,37.0,28.2,33.0,27.0,20.0,85,68,49,30.43,30.14,4,0,9,0.00
2014-1-2,39.0,34.7,31.9,35.0,31.9,29.0,93,89,82,30.13,29.63,5,1,8,0.05